This is the latest recevied weather packets stored in our database for station/object G0AMO. If no packets are shown the sender has not sent any weather packets the latest 10 day(s).
| Time | Temp. | Humidity | Pressure | Rain* | Wind** | Luminosity | Snow |
|---|---|---|---|---|---|---|---|
| 1777961105 | 8.33° C | 95% | 1013.9 hPa | 0 mm | - | 59 W/m² | - |
| 1777960504 | 8.33° C | 96% | 1013.5 hPa | 0 mm | - | 0 W/m² | - |
| 1777959903 | 8.33° C | 96% | 1013.9 hPa | 0 mm | - | 0 W/m² | - |
| 1777958705 | 7.78° C | 96% | 1014.9 hPa | 0 mm | - | 0 W/m² | - |
| 1777957506 | 7.78° C | 96% | 1014.9 hPa | 0 mm | - | 0 W/m² | - |
| 1777956305 | 7.78° C | 95% | 1013.9 hPa | 0 mm | - | 0 W/m² | - |
| 1777955405 | 7.78° C | 95% | 1014.4 hPa | 0 mm | - | 0 W/m² | - |
| 1777953604 | 8.33° C | 95% | 1015.2 hPa | 0 mm | - | 0 W/m² | - |
| 1777951505 | 8.33° C | 95% | 1014.9 hPa | 0 mm | - | 0 W/m² | - |
| 1777951204 | 8.33° C | 94% | 1014.2 hPa | 0 mm | - | 0 W/m² | - |
| 1777944305 | 10.56° C | 91% | 1015.2 hPa | 0 mm | - | 0 W/m² | - |
| 1777943104 | 11.11° C | 89% | 1014.2 hPa | 0 mm | - | 0 W/m² | - |
| 1777942204 | 11.11° C | 89% | 1015.6 hPa | 0 mm | - | 0 W/m² | - |
| 1777941604 | 11.11° C | 89% | 1015.6 hPa | 0 mm | - | 0 W/m² | - |
| 1777941004 | 11.67° C | 89% | 1015.6 hPa | 0 mm | - | 0 W/m² | - |
| 1777940704 | 11.67° C | 89% | 1015.6 hPa | 0 mm | - | 0 W/m² | - |
| 1777940104 | 11.67° C | 89% | 1015.6 hPa | 0 mm | - | 0 W/m² | - |
| 1777935904 | 12.22° C | 87% | 1015.9 hPa | 0 mm | - | 0 W/m² | - |
| 1777929604 | 12.22° C | 87% | 1015.2 hPa | 0 mm | - | 0 W/m² | - |
| 1777929004 | 12.22° C | 87% | 1015.9 hPa | 0 mm | - | 0 W/m² | - |
| 1777928106 | 12.22° C | 87% | 1015.2 hPa | 0 mm | - | 0 W/m² | - |
| 1777926304 | 12.78° C | 87% | 1015.7 hPa | 0 mm | - | 0 W/m² | - |
| 1777925404 | 12.78° C | 87% | 1015.6 hPa | 0 mm | - | 0 W/m² | - |
| 1777922404 | 13.33° C | 86% | 1015.2 hPa | 0 mm | - | 0 W/m² | - |
| 1777921205 | 13.33° C | 85% | 1014.9 hPa | 0 mm | - | 0 W/m² | - |
* Rain latest hour (hover to see other rain measurements)
** Current wind speed in m/s (hover to see current wind gust speed)